Regional Weather Roundup
Issued by NWS

Home | Current Version | Previous Version | Graphics & Text | Print | Product List | Glossary Off
Versions: 1 2 3 4 5 6 7 8 9 10 11 12 13 14 15 16 17 18 19 20 21 22 23 24 25 26 27 28 29 30 31 32 33 34 35 36 37 38 39 40 41 42 43 44 45 46 47 48 49 50

000
ASUS43 KMPX 221910
RWRMN
WEATHER ROUNDUP FOR MINNESOTA
NATIONAL WEATHER SERVICE TWIN CITIES/CHANHASSEN MN
100 PM CST SAT NOV 22 2014


NOTE: "FAIR" INDICATES FEW OR NO CLOUDS BELOW 12,000 FEET WITH NO
SIGNIFICANT WEATHER AND/OR OBSTRUCTIONS TO VISIBILITY. N/A MEANS
CURRENT SKY AND/OR WEATHER CONDITIONS ARE NOT AVAILABLE.

MNZ060>063-068>070-222000-
   Twin Cities Metro

CITY           SKY/WX    TMP DP  RH WIND       PRES   REMARKS
TWIN CITIES    CLOUDY    35  33  92 S9        29.70F FOG     WCI  28
ST PAUL        CLOUDY    35  33  92 S9        29.72F FOG     WCI  28
CRYSTAL        CLOUDY    36  33  89 S9        29.68F FOG
BLAINE         CLOUDY    37  36  93 S9        29.69F FOG
LAKEVILLE      CLOUDY    34  34 100 S8        29.70F FOG     WCI  27
EDEN PRAIRIE   CLOUDY    35  33  92 S10       29.68F FOG     WCI  27
SOUTH ST PAUL  CLOUDY    36  33  92 S8        29.70F FOG
LAKE ELMO      CLOUDY    34  34 100 S12       29.71F FOG     WCI  25
$$
MNZ001>005-007-008-013>017-022>024-027-028-222000-
   Northwest Minnesota

CITY           SKY/WX    TMP DP  RH WIND       PRES   REMARKS
BEMIDJI        SUNNY     39  29  69 SE5       29.55F
HALLOCK          N/A     36  30  80 SE7       29.53F
ROSEAU         CLOUDY    36  30  80 E6        29.55F
WARROAD        CLOUDY    32  28  86 NE7       29.57F FOG     WCI  26
THIEF RVR FALL SUNNY     34  27  75 SE7       29.55F WCI  28
CROOKSTON      SUNNY     36  30  80 S6        29.54F
FOSSTON        SUNNY     39  28  65 S3        29.54F
DETROIT LAKES  SUNNY     41  32  70 S6        29.56F
MOORHEAD       MOSUNNY   41  32  70 SE9       29.54F
PARK RAPIDS    SUNNY     45  30  55 S10       29.56F
MAHNOMEN       FAIR      39  30  72 S9        29.54F
$$
MNZ006-009>011-018-025>026-222000-
   North Central Minnesota

CITY           SKY/WX    TMP DP  RH WIND       PRES   REMARKS
BAUDETTE       CLOUDY    35  29  78 E5        29.56F WCI  31
FLAG ISLAND    CLOUDY    30  27  86 CALM      29.57S
INTL FALLS     CLOUDY    37  29  72 VRB3      29.59S
WASKISH        SUNNY     45  34  65 CALM      29.56F
BIG FORK       SUNNY     43  30  61 CALM      29.58F
LONGVILLE      SUNNY     43  30  61 S5        29.58F
GRAND RAPIDS   SUNNY     37  28  70 SE9       29.60F
CRANE LAKE     CLOUDY    36  30  80 S3        29.62S
ORR            CLOUDY    36  27  69 CALM      29.58S
COOK           CLOUDY    36  30  80 CALM      29.60F
WALKER         FAIR      41  29  62 S6        29.57F
$$
MNZ012-019>021-037-222000-
   Northeast Minnesota

CITY           SKY/WX    TMP DP  RH WIND       PRES   REMARKS
DULUTH         CLOUDY    34  29  82 SW8       29.63F HAZE    WCI  27
ELY            CLOUDY    34  30  86 SW5       29.61S FOG     WCI  30
HIBBING        SUNNY     38  29  70 SE3       29.61F
EVELETH        CLOUDY    32  32 100 SE5       29.62F FOG     WCI  27
DULUTH HARBOR  CLOUDY    37  32  81 SW5       29.67F
TWO HARBORS    SUNNY     39  30  70 S9        29.62F
SILVER BAY     SUNNY     41  30  65 S5        29.62S
GRAND MARAIS     N/A     36  32  85 W9        29.64F
G MARAIS ARPRT CLOUDY    30  27  86 S5        29.60S WCI  25
$$
MNZ029>031-032-039>041-046>048-054>057-064-222000-
   West Central Minnesota

CITY           SKY/WX    TMP DP  RH WIND       PRES   REMARKS
FERGUS FALLS   MOSUNNY   36  28  75 S10       29.59F
WHEATON        PTSUNNY   34  28  80 SE13      29.56F WCI  25
MORRIS         MOSUNNY   34  28  80 SE13      29.58F WCI  25
ALEXANDRIA     MOSUNNY   39  29  67 S10       29.60F
ELBOW LAKE       N/A     35  30  83 S12       29.57F WCI  26
WADENA         SUNNY     43  30  61 S5        29.57F
GLENWOOD       MOSUNNY   36  30  80 S9        29.61F
APPLETON       MOSUNNY   41  30  65 SE8       29.59F
BENSON         MOSUNNY   36  30  80 S10       29.61F
ORTONVILLE     PTSUNNY   37  28  70 SE8       29.57F
MADISON        MOSUNNY   41  34  75 S10       29.57F
WILLMAR        FOG       34  32  93 SE9       29.64F VSB<1/4 WCI  26
$$
MNZ033>034-036-042>043-049>051-058-059-222000-
   Central Minnesota

CITY           SKY/WX    TMP DP  RH WIND       PRES   REMARKS
ST CLOUD       CLOUDY    34  31  88 S12       29.65F FOG     WCI  25
SAUK CENTRE    FAIR      32  29  90 SE10      29.63S FOG     WCI  24
PAYNESVILLE    CLOUDY    31  31 100 SE7       29.64F FOG     WCI  24
AITKIN         SUNNY     41  30  65 S7        29.60F
PINE RIVER     SUNNY     41  30  65 SE7       29.63F
BRAINERD       SUNNY     37  29  72 S10       29.62F
STAPLES        SUNNY     41  28  60 S7        29.59F
LONG PRAIRIE   FAIR      34  30  86 SE9       29.62S WCI  26
LITTLE FALLS   SUNNY     37  28  70 S7        29.63F
LITCHFIELD     FOG       36  36 100 S5        29.65F VSB 3/4
BUFFALO        CLOUDY    34  32  93 S7        29.68F FOG     WCI  28
MAPLE LAKE     CLOUDY    35  34  96 S8        29.67F FOG     WCI  28
$$
MNZ037-044-045-052-053-222000-
   East Central Minnesota

CITY           SKY/WX    TMP DP  RH WIND       PRES   REMARKS
PRINCETON      CLOUDY    36  34  93 S8        29.67F FOG
MORA           CLOUDY    34  30  86 S9        29.68  HAZE    WCI  26
CAMBRIDGE      CLOUDY    37  28  70 S5        29.66F
RUSH CITY      CLOUDY    36  32  86 S7        29.68F
MOOSE LAKE     CLOUDY    34  30  86 S5        29.64F HAZE    WCI  30
HINCKLEY       CLOUDY    36  32  87 S9        29.67F FOG
CLOQUET        CLOUDY    34  30  86 S6        29.64F FOG     WCI  29
MCGREGOR       SUNNY     41  32  70 S7        29.62F
$$
MNZ071>073-080-081-089-090-097-098-222000-
   Southwest Minnesota

CITY           SKY/WX    TMP DP  RH WIND       PRES   REMARKS
MONTEVIDEO     MOSUNNY   41  34  75 SW8       29.61F
GRANITE FALLS  MOSUNNY   37  33  84 SE12      29.62F
CANBY          MOSUNNY   40  32  72 SW12G21   29.57F
MARSHALL       SUNNY     37  30  75 S21       29.60F
REDWOOD FALLS  CLOUDY    36  33  89 S14       29.63F FOG
OLIVIA         CLOUDY    34  32  93 S9        29.63F FOG     WCI  26
PIPESTONE      SNOW      34  34 100 S10       29.60F VSB<1/4 WCI  26
WINDOM         FOG       36  36 100 S14       29.65F VSB 3/4
WORTHINGTON    CLOUDY    36  34  93 S16G22    29.65F VSB 1/4
JACKSON        CLOUDY    36  34  93 S16       29.67F FOG
TRACY          CLOUDY    36  34  93 SW15G21   29.60F FOG
SLAYTON        FOG       34  34 100 S14       29.62F VSB 1/4 WCI  24
$$
MNZ065>067-074>077-082>085-091>093-222000-
   South Central Minnesota

CITY           SKY/WX    TMP DP  RH WIND       PRES   REMARKS
MANKATO        CLOUDY    36  32  87 S14       29.69F
NEW ULM        SUNNY     36  36 100 S9        29.67F FOG
ST JAMES       CLOUDY    37  36  93 S10       29.69F FOG
FAIRMONT       CLOUDY    36  32  87 S10G20    29.69F
GLENCOE        CLOUDY    35  35  99 S7        29.67F FOG     WCI  29
FARIBAULT      CLOUDY    36  34  93 S9        29.70F FOG
OWATONNA       CLOUDY    36  34  93 S10       29.70F FOG
WASECA         CLOUDY    36  32  87 S14       29.71F FOG
ALBERT LEA     FOG       36  36 100 SW12G17   29.71F VSB 1
$$
MNZ078>079-086>088-094>096-222000-
   Southeast Minnesota

CITY           SKY/WX    TMP DP  RH WIND       PRES   REMARKS
ROCHESTER      FOG       35  34  96 SW15      29.73F VSB 1/4 WCI  25
RED WING         N/A     37  36  93 SW6       29.72F FOG
STANTON        CLOUDY    37  34  90 S9        29.70F FOG
DODGE CENTER   CLOUDY    36  36 100 SW13G18   29.71F FOG
WINONA         CLOUDY    37  36  93 S3        29.75F FOG
AUSTIN         FOG       36  36 100 S9        29.72F VSB 1/2
PRESTON        FOG       36  35  98 SW12      29.75F VSB 1/4
$$
ABBREVIATIONS USED IN REMARKS
   TC - TEMPERATURES IN CELSIUS
  WCI - WIND CHILL INDEX
   HX - HEAT INDEX
  VSB - VISIBILITY
$$



USA.gov is the U.S. government's official web portal to all federal, state and local government web resources and services.